StationID,Date,MaxTemp,MinTemp,Precipitation,Snowfall,SnowDepth
"CA007026213","1973-01-01",,21.02,0.00,0.00,
"CA007026213","1973-01-02",,6.08,0.00,0.00,
"CA007026213","1973-01-03",,5.00,0.00,0.00,
"CA007026213","1973-01-04",,10.04,10.00,0.00,
"CA007026213","1973-01-05",,,13.00,13.00,
"CA007026213","1973-01-06",,-5.98,0.00,0.00,
"CA007026213","1973-01-07",,-9.94,0.00,0.00,
"CA007026213","1973-01-08",,-16.96,0.00,0.00,
"CA007026213","1973-01-09",,-20.92,,,
"CA007026213","1973-01-10",,-9.94,0.00,0.00,
"CA007026213","1973-01-11",,6.08,,,
"CA007026213","1973-01-12",,-20.02,,,
"CA007026213","1973-01-13",,-18.94,0.00,0.00,
"CA007026213","1973-01-14",,-9.04,30.00,30.00,
"CA007026213","1973-01-15",,15.08,0.00,0.00,
"CA007026213","1973-01-16",,14.00,0.00,0.00,
"CA007026213","1973-01-17",,33.98,0.00,0.00,
"CA007026213","1973-01-18",,21.92,0.00,0.00,
"CA007026213","1973-01-19",44.96,19.04,137.00,5.00,
"CA007026213","1973-01-20",30.92,19.04,0.00,0.00,
"CA007026213","1973-01-21",17.96,10.04,0.00,0.00,
"CA007026213","1973-01-22",42.08,1.04,,0.00,
"CA007026213","1973-01-23",41.00,30.92,,0.00,
"CA007026213","1973-01-24",30.92,23.00,0.00,0.00,
"CA007026213","1973-01-25",33.08,15.08,0.00,0.00,
"CA007026213","1973-01-26",35.96,21.02,0.00,0.00,
"CA007026213","1973-01-27",39.02,26.96,0.00,0.00,
"CA007026213","1973-01-28",,6.08,,,
"CA007026213","1973-01-30",12.02,-16.06,,,
"CA007026213","1973-01-31",-11.02,-27.04,0.00,0.00,
"CA007026213","1973-02-01",35.06,-27.94,0.00,0.00,
"CA007026213","1973-02-02",39.92,21.92,241.00,0.00,
"CA007026213","1973-02-03",33.08,24.98,0.00,0.00,
"CA007026213","1973-02-04",35.06,23.00,0.00,0.00,
"CA007026213","1973-02-05",21.92,12.92,0.00,0.00,
"CA007026213","1973-02-06",21.92,5.00,0.00,0.00,
"CA007026213","1973-02-07",32.00,10.04,30.00,30.00,
"CA007026213","1973-02-08",33.08,24.98,51.00,51.00,
"CA007026213","1973-02-09",6.98,-5.08,0.00,0.00,
"CA007026213","1973-02-10",10.04,-13.00,0.00,0.00,
"CA007026213","1973-02-11",6.98,-16.06,0.00,0.00,
"CA007026213","1973-02-12",12.02,-20.02,0.00,0.00,
"CA007026213","1973-02-13",28.94,6.08,0.00,0.00,
"CA007026213","1973-02-14",28.94,8.06,178.00,178.00,
"CA007026213","1973-02-15",28.94,19.94,64.00,64.00,
"CA007026213","1973-02-16",12.02,3.02,0.00,0.00,
"CA007026213","1973-02-17",3.92,-31.00,0.00,0.00,
"CA007026213","1973-02-18",28.04,-9.04,0.00,0.00,
"CA007026213","1973-02-19",35.06,14.00,8.00,8.00,
"CA007026213","1973-02-20",35.96,32.00,0.00,0.00,
"CA007026213","1973-02-21",32.00,21.02,5.00,5.00,
"CA007026213","1973-02-22",32.00,23.00,0.00,0.00,
"CA007026213","1973-02-23",21.92,17.06,0.00,0.00,
"CA007026213","1973-02-24",26.06,10.94,0.00,0.00,
"CA007026213","1973-02-25",17.96,-5.08,0.00,0.00,
"CA007026213","1973-02-26",19.04,-11.02,0.00,0.00,
"CA007026213","1973-02-27",15.98,-7.96,0.00,0.00,
"CA007026213","1973-02-28",19.94,-11.92,0.00,0.00,
"CA007026213","1973-03-01",19.94,10.94,163.00,163.00,
"CA007026213","1973-03-02",26.96,17.96,0.00,0.00,
"CA007026213","1973-03-03",35.96,19.04,107.00,0.00,
"CA007026213","1973-03-04",39.92,33.98,0.00,0.00,
"CA007026213","1973-03-05",35.06,23.00,0.00,0.00,
"CA007026213","1973-03-06",41.00,26.96,0.00,0.00,
"CA007026213","1973-03-07",48.92,35.96,0.00,0.00,
"CA007026213","1973-03-08",50.00,41.00,0.00,0.00,
"CA007026213","1973-03-09",33.08,28.04,0.00,0.00,
"CA007026213","1973-03-10",39.02,26.06,0.00,0.00,
"CA007026213","1973-03-11",46.04,33.08,23.00,0.00,
"CA007026213","1973-03-12",48.02,35.96,41.00,0.00,
"CA007026213","1973-03-13",41.00,30.92,0.00,0.00,
"CA007026213","1973-03-14",42.98,26.96,102.00,0.00,
"CA007026213","1973-03-15",48.02,33.98,0.00,0.00,
"CA007026213","1973-03-16",42.98,37.94,91.00,0.00,
"CA007026213","1973-03-17",39.02,32.00,295.00,0.00,
"CA007026213","1973-03-18",37.04,30.92,46.00,0.00,
"CA007026213","1973-03-19",39.02,33.08,0.00,0.00,
"CA007026213","1973-03-20",32.00,21.92,0.00,0.00,
"CA007026213","1973-03-21",33.08,23.00,0.00,0.00,
"CA007026213","1973-03-22",35.96,24.08,0.00,0.00,
"CA007026213","1973-03-23",42.98,21.92,0.00,0.00,
"CA007026213","1973-03-24",48.92,26.96,0.00,0.00,
"CA007026213","1973-03-25",51.98,32.00,0.00,0.00,
"CA007026213","1973-03-26",51.98,33.98,0.00,0.00,
"CA007026213","1973-03-27",37.94,24.98,0.00,0.00,
"CA007026213","1973-03-28",46.94,19.04,0.00,0.00,
"CA007026213","1973-03-29",53.96,30.02,33.00,0.00,
"CA007026213","1973-03-30",53.06,37.94,0.00,0.00,
"CA007026213","1973-03-31",55.94,39.02,0.00,0.00,
"CA007026213","1973-04-01",48.92,37.94,168.00,0.00,
"CA007026213","1973-04-02",39.92,35.06,109.00,0.00,
"CA007026213","1973-04-03",39.02,33.98,25.00,0.00,
"CA007026213","1973-04-04",42.08,35.06,249.00,58.00,
"CA007026213","1973-04-05",39.02,32.00,0.00,0.00,
"CA007026213","1973-04-06",46.04,32.00,0.00,0.00,
"CA007026213","1973-04-07",44.96,30.02,0.00,0.00,
"CA007026213","1973-04-08",44.06,28.04,0.00,0.00,
"CA007026213","1973-04-09",41.00,24.98,13.00,13.00,
"CA007026213","1973-04-10",32.00,26.96,89.00,89.00,
"CA007026213","1973-04-11",32.00,24.08,0.00,0.00,
"CA007026213","1973-04-12",30.02,23.00,0.00,0.00,
"CA007026213","1973-04-13",37.94,17.96,0.00,0.00,
"CA007026213","1973-04-14",48.02,17.96,0.00,0.00,
"CA007026213","1973-04-15",60.08,32.00,0.00,0.00,
"CA007026213","1973-04-16",78.08,35.06,0.00,0.00,
"CA007026213","1973-04-17",62.06,42.98,0.00,0.00,
"CA007026213","1973-04-18",69.98,41.00,0.00,0.00,
"CA007026213","1973-04-19",66.92,39.02,0.00,0.00,
"CA007026213","1973-04-20",64.94,35.96,0.00,0.00,
"CA007026213","1973-04-21",71.96,42.08,58.00,0.00,
"CA007026213","1973-04-22",78.08,57.02,0.00,0.00,
"CA007026213","1973-04-23",60.08,42.98,0.00,0.00,
"CA007026213","1973-04-24",62.96,42.08,0.00,0.00,
"CA007026213","1973-04-25",59.00,33.98,0.00,0.00,
"CA007026213","1973-04-26",64.94,35.96,0.00,0.00,
"CA007026213","1973-04-27",51.98,46.04,30.00,0.00,
"CA007026213","1973-04-28",59.00,44.06,104.00,0.00,
"CA007026213","1973-04-29",42.98,39.02,10.00,0.00,
"CA007026213","1973-04-30",50.00,37.04,0.00,0.00,
"CA007026213","1973-05-01",59.00,33.08,53.00,0.00,
"CA007026213","1973-05-02",75.92,48.02,18.00,0.00,
"CA007026213","1973-05-03",66.02,53.06,81.00,0.00,
"CA007026213","1973-05-04",51.08,44.06,0.00,0.00,
"CA007026213","1973-05-05",51.08,41.00,20.00,0.00,
"CA007026213","1973-05-06",64.94,32.00,0.00,0.00,
"CA007026213","1973-05-07",62.96,35.06,0.00,0.00,
"CA007026213","1973-05-08",71.96,39.02,66.00,0.00,
"CA007026213","1973-05-09",59.00,50.00,152.00,0.00,
"CA007026213","1973-05-10",68.00,51.98,107.00,0.00,
"CA007026213","1973-05-11",68.00,53.06,36.00,0.00,
"CA007026213","1973-05-12",60.08,46.94,38.00,0.00,
"CA007026213","1973-05-13",57.92,44.06,0.00,0.00,
"CA007026213","1973-05-14",59.00,41.00,0.00,0.00,
"CA007026213","1973-05-15",62.96,39.02,0.00,0.00,
"CA007026213","1973-05-16",64.94,42.08,0.00,0.00,
"CA007026213","1973-05-17",59.00,46.04,91.00,0.00,
"CA007026213","1973-05-18",53.96,37.04,104.00,0.00,
"CA007026213","1973-05-19",55.94,44.96,74.00,0.00,
"CA007026213","1973-05-20",68.00,41.00,0.00,0.00,
"CA007026213","1973-05-21",55.04,48.92,28.00,0.00,
"CA007026213","1973-05-22",62.96,48.92,0.00,0.00,
"CA007026213","1973-05-23",68.00,41.00,0.00,0.00,
"CA007026213","1973-05-24",66.02,46.04,0.00,0.00,
"CA007026213","1973-05-25",62.96,44.96,0.00,0.00,
"CA007026213","1973-05-26",64.94,44.96,0.00,0.00,
"CA007026213","1973-05-27",71.06,46.04,,0.00,
"CA007026213","1973-05-28",60.98,42.08,,0.00,
"CA007026213","1973-05-29",68.00,57.92,,0.00,
"CA007026213","1973-05-30",69.98,50.00,,0.00,
"CA007026213","1973-05-31",64.04,53.96,,,
"CA007026213","1973-06-01",69.98,53.96,0.00,0.00,
"CA007026213","1973-06-02",62.96,39.92,0.00,0.00,
"CA007026213","1973-06-03",73.04,37.94,,0.00,
"CA007026213","1973-06-04",64.94,48.02,,0.00,
"CA007026213","1973-06-05",78.08,57.02,,0.00,
"CA007026213","1973-06-06",84.92,57.02,13.00,0.00,
"CA007026213","1973-06-07",80.06,64.94,0.00,0.00,
"CA007026213","1973-06-08",82.94,60.98,0.00,0.00,
"CA007026213","1973-06-09",82.94,64.94,0.00,0.00,
"CA007026213","1973-06-10",78.98,55.94,,0.00,
"CA007026213","1973-06-11",84.02,60.98,,0.00,
"CA007026213","1973-06-12",77.00,,,0.00,
"CA007026213","1973-06-13",80.06,62.96,0.00,0.00,
"CA007026213","1973-06-14",75.02,53.06,,0.00,
"CA007026213","1973-06-15",62.06,48.02,,0.00,
"CA007026213","1973-06-16",,,64.00,0.00,
"CA007026213","1973-06-17",66.92,46.04,0.00,0.00,
"CA007026213","1973-06-18",73.04,44.06,0.00,0.00,
"CA007026213","1973-06-19",75.02,48.92,0.00,0.00,
"CA007026213","1973-06-20",84.02,62.96,0.00,0.00,
"CA007026213","1973-06-21",84.92,66.92,0.00,0.00,
"CA007026213","1973-06-22",80.06,62.96,,0.00,
"CA007026213","1973-06-23",,53.96,0.00,0.00,
"CA007026213","1973-06-24",78.98,55.04,,0.00,
"CA007026213","1973-06-25",78.98,57.02,0.00,0.00,
"CA007026213","1973-06-26",84.92,55.04,0.00,0.00,
"CA007026213","1973-06-27",84.02,69.08,0.00,0.00,
"CA007026213","1973-06-28",84.02,66.92,0.00,0.00,
"CA007026213","1973-06-29",78.98,69.98,193.00,0.00,
"CA007026213","1973-06-30",80.06,68.00,8.00,0.00,
"CA007026213","1973-07-01",84.02,,0.00,0.00,
"CA007026213","1973-07-02",84.92,62.96,0.00,0.00,
"CA007026213","1973-07-03",87.08,69.08,0.00,0.00,
"CA007026213","1973-07-04",84.92,66.02,0.00,0.00,
"CA007026213","1973-07-05",82.04,66.92,0.00,0.00,
"CA007026213","1973-07-06",82.04,60.98,0.00,0.00,
"CA007026213","1973-07-07",89.96,64.94,0.00,0.00,
"CA007026213","1973-07-08",93.02,73.04,0.00,0.00,
"CA007026213","1973-07-09",89.96,71.96,0.00,0.00,
"CA007026213","1973-07-10",,,,0.00,
"CA007026213","1973-07-11",75.92,59.00,0.00,0.00,
"CA007026213","1973-07-12",73.94,51.98,0.00,0.00,
"CA007026213","1973-07-13",77.00,57.02,0.00,0.00,
"CA007026213","1973-07-14",80.96,64.94,0.00,0.00,
"CA007026213","1973-07-15",77.00,62.96,,0.00,
"CA007026213","1973-07-16",80.06,51.08,0.00,0.00,
"CA007026213","1973-07-17",82.04,50.00,0.00,0.00,
"CA007026213","1973-07-18",82.94,48.92,0.00,0.00,
"CA007026213","1973-07-19",86.00,57.02,41.00,0.00,
"CA007026213","1973-07-20",75.92,62.06,0.00,0.00,
"CA007026213","1973-07-21",82.94,60.08,0.00,0.00,
"CA007026213","1973-07-22",82.04,50.00,0.00,0.00,
"CA007026213","1973-07-23",80.06,50.00,0.00,0.00,
"CA007026213","1973-07-24",91.04,50.00,0.00,0.00,
"CA007026213","1973-07-25",89.06,60.08,274.00,0.00,
"CA007026213","1973-07-26",78.08,66.92,86.00,0.00,
"CA007026213","1973-07-27",86.00,71.06,28.00,0.00,
"CA007026213","1973-07-28",84.92,66.92,71.00,0.00,
"CA007026213","1973-07-29",80.06,66.02,0.00,0.00,
"CA007026213","1973-07-30",84.02,57.92,0.00,0.00,
"CA007026213","1973-07-31",86.00,64.04,0.00,0.00,
"CA007026213","1973-08-01",82.04,66.92,69.00,0.00,
"CA007026213","1973-08-02",75.92,66.92,15.00,0.00,
"CA007026213","1973-08-03",82.04,64.94,0.00,0.00,
"CA007026213","1973-08-04",82.04,64.04,10.00,0.00,
"CA007026213","1973-08-05",87.08,64.04,0.00,0.00,
"CA007026213","1973-08-06",73.94,66.92,56.00,0.00,
"CA007026213","1973-08-07",71.96,60.98,,0.00,
"CA007026213","1973-08-08",84.02,66.92,,0.00,
"CA007026213","1973-08-09",87.98,73.04,,0.00,
"CA007026213","1973-08-10",87.08,69.08,,0.00,
"CA007026213","1973-08-11",86.00,62.06,,0.00,
"CA007026213","1973-08-12",80.06,64.04,0.00,0.00,
"CA007026213","1973-08-13",80.96,64.04,0.00,0.00,
"CA007026213","1973-08-14",80.06,62.06,13.00,0.00,
"CA007026213","1973-08-15",77.00,62.06,0.00,0.00,
"CA007026213","1973-08-16",84.92,55.04,0.00,0.00,
"CA007026213","1973-08-17",84.02,59.00,0.00,0.00,
"CA007026213","1973-08-18",87.98,60.98,0.00,0.00,
"CA007026213","1973-08-19",84.92,60.98,56.00,0.00,
"CA007026213","1973-08-20",86.00,60.08,0.00,0.00,
"CA007026213","1973-08-21",82.94,59.00,140.00,0.00,
"CA007026213","1973-08-22",64.94,57.92,0.00,0.00,
"CA007026213","1973-08-23",73.94,42.98,0.00,0.00,
"CA007026213","1973-08-24",71.06,51.98,0.00,0.00,
"CA007026213","1973-08-25",71.96,46.94,0.00,0.00,
"CA007026213","1973-08-26",80.06,50.00,0.00,0.00,
"CA007026213","1973-08-27",87.08,59.00,396.00,0.00,
"CA007026213","1973-08-28",87.08,64.94,0.00,0.00,
"CA007026213","1973-08-29",89.06,60.08,0.00,0.00,
"CA007026213","1973-08-30",91.04,71.96,0.00,0.00,
"CA007026213","1973-08-31",87.98,66.02,0.00,0.00,
"CA007026213","1973-09-01",87.08,66.92,0.00,0.00,
"CA007026213","1973-09-02",89.96,71.06,0.00,0.00,
"CA007026213","1973-09-03",87.98,71.96,0.00,0.00,
"CA007026213","1973-09-04",,64.94,0.00,0.00,
"CA007026213","1973-09-05",91.04,64.04,,0.00,
"CA007026213","1973-09-06",78.08,62.96,,0.00,
"CA007026213","1973-09-07",62.06,53.06,0.00,0.00,
"CA007026213","1973-09-08",66.92,53.06,0.00,0.00,
"CA007026213","1973-09-09",62.06,48.02,0.00,0.00,
"CA007026213","1973-09-10",66.92,39.92,28.00,0.00,
"CA007026213","1973-09-11",66.92,55.04,10.00,0.00,
"CA007026213","1973-09-12",66.92,48.92,0.00,0.00,
"CA007026213","1973-09-13",64.94,42.08,0.00,0.00,
"CA007026213","1973-09-14",66.92,46.94,0.00,0.00,
"CA007026213","1973-09-15",62.06,48.92,0.00,0.00,
"CA007026213","1973-09-16",62.96,50.00,0.00,0.00,
"CA007026213","1973-09-17",57.02,35.96,180.00,0.00,
"CA007026213","1973-09-18",55.04,46.94,36.00,0.00,
"CA007026213","1973-09-19",66.02,35.96,8.00,0.00,
"CA007026213","1973-09-20",55.04,46.94,36.00,0.00,
"CA007026213","1973-09-21",55.94,30.92,0.00,0.00,
"CA007026213","1973-09-22",50.00,33.08,157.00,0.00,
"CA007026213","1973-09-23",64.04,44.96,0.00,0.00,
"CA007026213","1973-09-24",62.06,42.08,0.00,0.00,
"CA007026213","1973-09-25",66.02,44.96,0.00,0.00,
"CA007026213","1973-09-26",69.98,42.08,0.00,0.00,
"CA007026213","1973-09-27",75.02,57.92,5.00,0.00,
"CA007026213","1973-09-28",68.00,44.96,0.00,0.00,
"CA007026213","1973-09-29",69.08,51.08,0.00,0.00,
"CA007026213","1973-09-30",62.06,35.96,0.00,0.00,
"CA007026213","1973-10-01",69.08,35.96,0.00,0.00,
"CA007026213","1973-10-02",59.00,42.98,152.00,0.00,
"CA007026213","1973-10-03",60.08,55.04,48.00,0.00,
"CA007026213","1973-10-04",62.06,57.02,183.00,0.00,
"CA007026213","1973-10-05",62.06,51.98,71.00,0.00,
"CA007026213","1973-10-06",60.08,46.04,0.00,0.00,
"CA007026213","1973-10-07",60.08,33.08,0.00,0.00,
"CA007026213","1973-10-08",64.94,32.00,0.00,0.00,
"CA007026213","1973-10-09",69.98,35.96,0.00,0.00,
"CA007026213","1973-10-10",68.00,44.06,0.00,0.00,
"CA007026213","1973-10-11",57.92,37.94,0.00,0.00,
"CA007026213","1973-10-12",68.00,42.08,3.00,0.00,
"CA007026213","1973-10-13",73.04,48.92,91.00,0.00,
"CA007026213","1973-10-14",59.00,48.02,0.00,0.00,
"CA007026213","1973-10-15",51.98,46.94,0.00,0.00,
"CA007026213","1973-10-16",46.04,37.94,18.00,0.00,
"CA007026213","1973-10-17",48.02,28.04,0.00,0.00,
"CA007026213","1973-10-18",46.04,35.06,0.00,0.00,
"CA007026213","1973-10-19",53.96,28.04,5.00,0.00,
"CA007026213","1973-10-20",46.94,39.92,0.00,0.00,
"CA007026213","1973-10-21",51.98,28.94,0.00,0.00,
"CA007026213","1973-10-22",59.00,39.92,0.00,0.00,
"CA007026213","1973-10-23",60.08,48.92,0.00,0.00,
"CA007026213","1973-10-24",53.96,46.94,0.00,0.00,
"CA007026213","1973-10-25",69.08,37.94,0.00,0.00,
"CA007026213","1973-10-26",64.04,44.96,0.00,0.00,
"CA007026213","1973-10-27",46.94,33.98,0.00,0.00,
"CA007026213","1973-10-28",42.98,26.96,0.00,0.00,
"CA007026213","1973-10-29",51.98,30.02,0.00,0.00,
"CA007026213","1973-10-30",48.92,35.96,0.00,0.00,
"CA007026213","1973-10-31",48.02,37.94,0.00,0.00,
"CA007026213","1973-11-01",44.06,35.96,,0.00,
"CA007026213","1973-11-02",42.08,35.96,,0.00,
"CA007026213","1973-11-03",44.96,32.00,0.00,0.00,
"CA007026213","1973-11-04",39.02,32.00,0.00,0.00,
"CA007026213","1973-11-05",37.04,24.08,0.00,0.00,
"CA007026213","1973-11-06",32.00,12.92,0.00,0.00,
"CA007026213","1973-11-07",39.02,23.00,0.00,0.00,
"CA007026213","1973-11-08",44.06,33.98,117.00,0.00,
"CA007026213","1973-11-09",33.08,26.06,0.00,0.00,
"CA007026213","1973-11-10",33.98,21.02,0.00,0.00,
"CA007026213","1973-11-11",37.94,19.94,0.00,0.00,
"CA007026213","1973-11-12",46.04,30.02,23.00,0.00,
"CA007026213","1973-11-13",44.96,39.92,109.00,0.00,
"CA007026213","1973-11-14",48.02,35.06,38.00,0.00,
"CA007026213","1973-11-15",37.04,30.02,53.00,46.00,
"CA007026213","1973-11-16",30.02,24.98,0.00,0.00,
"CA007026213","1973-11-17",35.96,21.92,0.00,0.00,
"CA007026213","1973-11-18",35.96,26.06,0.00,0.00,
"CA007026213","1973-11-19",35.06,15.08,0.00,0.00,
"CA007026213","1973-11-20",33.98,24.98,0.00,0.00,
"CA007026213","1973-11-21",37.94,19.04,15.00,0.00,
"CA007026213","1973-11-22",39.92,32.00,0.00,0.00,
"CA007026213","1973-11-23",41.00,28.94,0.00,0.00,
"CA007026213","1973-11-24",39.92,28.04,71.00,0.00,
"CA007026213","1973-11-25",37.04,30.92,0.00,0.00,
"CA007026213","1973-11-26",37.94,19.04,0.00,0.00,
"CA007026213","1973-11-27",37.04,28.04,38.00,0.00,
"CA007026213","1973-11-28",48.92,30.92,0.00,0.00,
"CA007026213","1973-11-29",42.98,32.00,3.00,3.00,
"CA007026213","1973-11-30",37.94,33.08,0.00,0.00,
"CA007026213","1973-12-01",33.08,26.96,0.00,0.00,
"CA007026213","1973-12-02",33.98,19.04,0.00,0.00,
"CA007026213","1973-12-03",41.00,21.92,0.00,0.00,
"CA007026213","1973-12-04",44.06,35.06,0.00,0.00,
"CA007026213","1973-12-05",48.92,35.06,150.00,0.00,
"CA007026213","1973-12-06",42.98,35.06,20.00,0.00,
"CA007026213","1973-12-07",26.96,23.00,0.00,0.00,
"CA007026213","1973-12-08",30.02,15.98,0.00,0.00,
"CA007026213","1973-12-09",37.04,19.04,107.00,0.00,
"CA007026213","1973-12-10",37.94,32.00,0.00,0.00,
"CA007026213","1973-12-11",35.06,30.02,0.00,0.00,
"CA007026213","1973-12-12",24.08,12.92,0.00,0.00,
"CA007026213","1973-12-13",35.96,12.02,56.00,56.00,
"CA007026213","1973-12-14",35.06,21.02,0.00,0.00,
"CA007026213","1973-12-15",15.08,8.96,0.00,0.00,
"CA007026213","1973-12-16",15.08,10.04,23.00,23.00,
"CA007026213","1973-12-17",15.08,8.06,112.00,112.00,
"CA007026213","1973-12-18",8.06,-0.94,0.00,0.00,
"CA007026213","1973-12-19",10.04,-11.92,53.00,53.00,
"CA007026213","1973-12-20",33.98,3.92,58.00,58.00,
"CA007026213","1973-12-21",32.00,12.02,64.00,64.00,
"CA007026213","1973-12-22",19.04,,76.00,76.00,
"CA007026213","1973-12-23",12.92,3.02,0.00,0.00,
"CA007026213","1973-12-24",14.00,-20.02,0.00,0.00,
"CA007026213","1973-12-25",42.08,-11.02,,0.00,
"CA007026213","1973-12-26",42.98,10.04,,0.00,
"CA007026213","1973-12-27",39.02,30.02,,0.00,
"CA007026213","1973-12-28",37.04,30.02,0.00,0.00,
"CA007026213","1973-12-29",39.02,28.04,20.00,0.00,
"CA007026213","1973-12-30",35.96,17.96,0.00,0.00,
"CA007026213","1973-12-31",26.06,10.04,74.00,74.00,
"CA007026213","1974-01-01",28.94,12.02,0.00,0.00,
"CA007026213","1974-01-02",17.96,5.00,0.00,0.00,
"CA007026213","1974-01-03",21.02,-0.04,,,
"CA007026213","1974-01-04",24.98,3.92,0.00,0.00,
"CA007026213","1974-01-05",26.06,-4.00,0.00,0.00,
"CA007026213","1974-01-06",23.00,17.96,,,
"CA007026213","1974-01-07",21.92,12.92,0.00,0.00,
"CA007026213","1974-01-08",19.94,-18.04,,,
"CA007026213","1974-01-09",5.00,-27.04,,,
"CA007026213","1974-01-10",19.04,-5.08,,,
"CA007026213","1974-01-11",17.06,-7.96,,,
"CA007026213","1974-01-12",15.08,-18.04,0.00,0.00,
"CA007026213","1974-01-13",12.02,-34.06,0.00,0.00,
"CA007026213","1974-01-14",37.94,-25.06,0.00,0.00,
"CA007026213","1974-01-15",17.96,12.02,38.00,38.00,
"CA007026213","1974-01-16",1.04,-2.92,46.00,46.00,
"CA007026213","1974-01-17",-5.08,-23.98,0.00,0.00,
"CA007026213","1974-01-18",6.08,-29.02,25.00,25.00,
"CA007026213","1974-01-19",15.08,-7.96,0.00,0.00,
"CA007026213","1974-01-20",33.08,-16.96,56.00,0.00,
"CA007026213","1974-01-21",30.02,1.94,,,
"CA007026213","1974-01-22",30.02,28.04,,,
"CA007026213","1974-01-23",32.00,19.94,0.00,0.00,
"CA007026213","1974-01-24",35.06,15.08,0.00,0.00,
"CA007026213","1974-01-25",30.92,8.96,25.00,25.00,
"CA007026213","1974-01-26",39.02,19.94,,0.00,
"CA007026213","1974-01-27",48.02,19.94,,0.00,
"CA007026213","1974-01-28",39.92,33.08,30.00,30.00,
"CA007026213","1974-01-29",39.92,30.02,0.00,0.00,
"CA007026213","1974-01-30",42.08,33.08,0.00,0.00,
"CA007026213","1974-01-31",44.06,24.98,0.00,0.00,
"CA007026213","1974-02-01",8.06,1.94,0.00,0.00,
"CA007026213","1974-02-02",3.92,-9.94,0.00,0.00,
"CA007026213","1974-02-03",3.02,-7.96,0.00,0.00,
"CA007026213","1974-02-04",6.98,-5.98,0.00,0.00,
"CA007026213","1974-02-05",8.06,-5.98,0.00,0.00,
"CA007026213","1974-02-06",15.08,-0.04,0.00,0.00,
"CA007026213","1974-02-07",19.04,6.98,0.00,0.00,
"CA007026213","1974-02-08",17.06,-4.00,0.00,0.00,
"CA007026213","1974-02-09",19.04,1.04,0.00,0.00,
"CA007026213","1974-02-10",,,0.00,0.00,
"CA007026213","1974-02-11",21.92,8.96,0.00,0.00,
"CA007026213","1974-02-12",33.08,3.02,25.00,25.00,
"CA007026213","1974-02-13",35.96,19.94,0.00,0.00,
"CA007026213","1974-02-14",15.08,-4.00,0.00,0.00,
"CA007026213","1974-02-15",24.08,-7.06,0.00,0.00,
"CA007026213","1974-02-16",26.06,1.94,13.00,13.00,
"CA007026213","1974-02-17",28.04,12.02,0.00,0.00,
"CA007026213","1974-02-18",26.06,12.02,0.00,0.00,
"CA007026213","1974-02-19",33.08,15.08,28.00,28.00,
"CA007026213","1974-02-20",33.08,24.08,0.00,0.00,
"CA007026213","1974-02-21",30.02,17.06,,,
"CA007026213","1974-02-22",41.00,17.96,,,
"CA007026213","1974-02-23",15.98,12.92,,,
"CA007026213","1974-02-24",17.96,6.98,0.00,0.00,
"CA007026213","1974-02-25",,,0.00,0.00,
"CA007026213","1974-02-26",28.94,3.02,0.00,0.00,
"CA007026213","1974-02-27",35.06,3.02,0.00,0.00,
"CA007026213","1974-02-28",39.92,28.04,20.00,0.00,
"CA007026213","1974-03-01",42.98,33.98,0.00,0.00,
"CA007026213","1974-03-02",26.06,15.98,5.00,5.00,
"CA007026213","1974-03-03",51.98,5.00,33.00,0.00,
"CA007026213","1974-03-04",50.00,33.08,279.00,0.00,
"CA007026213","1974-03-05",44.96,33.98,0.00,0.00,
"CA007026213","1974-03-06",50.00,32.00,0.00,0.00,
"CA007026213","1974-03-07",55.94,37.04,0.00,0.00,
"CA007026213","1974-03-08",33.08,15.98,0.00,0.00,
"CA007026213","1974-03-09",32.00,17.96,,,
"CA007026213","1974-03-10",28.04,21.02,0.00,0.00,
"CA007026213","1974-03-11",32.00,15.98,0.00,0.00,
"CA007026213","1974-03-12",24.08,8.06,0.00,0.00,
"CA007026213","1974-03-13",26.06,3.92,0.00,0.00,
"CA007026213","1974-03-14",33.08,6.98,0.00,0.00,
"CA007026213","1974-03-15",35.96,12.92,0.00,0.00,
"CA007026213","1974-03-16",35.06,21.92,51.00,51.00,
"CA007026213","1974-03-17",28.94,19.94,112.00,112.00,
"CA007026213","1974-03-18",,19.94,0.00,0.00,
"CA007026213","1974-03-19",39.02,23.00,0.00,0.00,
"CA007026213","1974-03-20",24.98,-0.04,0.00,0.00,
"CA007026213","1974-03-21",28.04,15.08,,,
"CA007026213","1974-03-22",35.06,12.92,0.00,0.00,
"CA007026213","1974-03-23",46.04,12.02,,,
"CA007026213","1974-03-24",32.00,19.94,0.00,0.00,
"CA007026213","1974-03-25",37.04,6.98,0.00,0.00,
"CA007026213","1974-03-26",33.98,8.96,,,
"CA007026213","1974-03-27",32.00,5.00,0.00,0.00,
"CA007026213","1974-03-28",17.96,6.98,0.00,0.00,
"CA007026213","1974-03-29",24.98,-7.96,0.00,0.00,
"CA007026213","1974-03-30",35.06,15.98,71.00,0.00,
"CA007026213","1974-03-31",37.04,32.00,51.00,51.00,
"CA007026213","1974-04-01",42.08,26.06,8.00,0.00,
"CA007026213","1974-04-02",42.98,21.02,41.00,0.00,
"CA007026213","1974-04-03",46.94,35.06,175.00,0.00,
"CA007026213","1974-04-04",48.02,35.06,46.00,0.00,
"CA007026213","1974-04-05",44.96,35.96,0.00,0.00,
"CA007026213","1974-04-06",39.92,30.02,0.00,0.00,
"CA007026213","1974-04-07",42.08,23.00,0.00,0.00,
"CA007026213","1974-04-08",33.08,19.94,0.00,0.00,
"CA007026213","1974-04-09",26.96,17.06,38.00,38.00,
"CA007026213","1974-04-10",39.92,19.94,25.00,25.00,
"CA007026213","1974-04-11",50.00,28.04,0.00,0.00,
"CA007026213","1974-04-12",42.98,23.00,,0.00,
"CA007026213","1974-04-13",50.00,35.06,,0.00,
"CA007026213","1974-04-14",55.94,33.08,,0.00,
"CA007026213","1974-04-15",48.92,35.96,15.00,15.00,
"CA007026213","1974-04-16",50.00,35.06,0.00,0.00,
"CA007026213","1974-04-17",62.96,35.96,0.00,0.00,
"CA007026213","1974-04-18",53.96,39.92,0.00,0.00,
"CA007026213","1974-04-19",50.00,26.96,0.00,0.00,
"CA007026213","1974-04-20",53.96,26.06,0.00,0.00,
"CA007026213","1974-04-21",71.06,33.98,0.00,0.00,